Погода в Байките

Погода в Байките : погода сейчас, прогноз погоды и архив. Всё, что Вы хотите узнать о погоде в Байките!

Хотите узнать прогноз погоды в Байките? Тогда Вам сюда: Погода в Байките

Поиск расширенной информации на нашем сайте:

Другие новости

Новости СМИ2

Главная страница сайта

Новости сайта

02.10.2013

Напоминаем, что на нашем новом сайте вы можете получить высокодетализированные прогнозы погоды по пунктам России, СНГ и мира (включающие важные для авиации метеовеличины, такие как направление и скорость ветра, видимость, явления погоды, количество и форма облачности, нижняя и верхняя граница облачности), а также ознакомиться с разнообразными материалами по авиационной метеорологии и подборкой полезных ссылок на эту тему.

Сайт Метеоцентр.Азия посвящён разработке технологий оптимизации авиаметеорологического обслуживания, включая проектирование и перспективное создание нескольких автоматизированных авиаметеорологических систем:
- система выпуска высокодетальных прогностических карт явлений погоды для нижнего воздушного пространства по России и ближнему зарубежью;
- система верификации прогнозов TAF (выпускаемых синоптиками официальных АМСГ РФ и ближнего зарубежья) и AUTOTAF (выпускаемых сайтом Метеоцентр.Азия) - выявление ошибок, онлайн-сопоставление с фактической погодой METAR, автоматическое внесение коррективов в прогнозы при резком отклонении фактической погоды от прогноза, подсчёт оправдываемости прогнозов по элементам и в целом;
- система обработки, анализа и отображения авиаметеорологической информации для применения провайдерами метеорологической информации.


Погода в Байките - сегодня

Время (UTC), дата Ветер
(°,м/с) 
Видим.   Явления Облачность Т
(°С)
Тd
(°С)
f(%) Тe
(°С)
Pmin
(гПа)
dP
(гПа)
Po
(мм)
O2
(г/м3)
Тmin Tmax R s Состояние
почвы
15 14.01.17 тихо ()   4000 м  слаб. снег  10/0 верхняя 
[Cs]
-31.4 -33 86 -31  1037.8  -0.3  752  344           
18 14.01.17 тихо ()   4000 м  слаб. снег  10/0 верхняя 
[Cs]
-31.1 -32.8 85 -31  1037.8  752  344           
21 14.01.17 тихо ()   4000 м  {снег}  3/0 верхняя 
[Ci fib]
-32.7 -34.5 84 -33  1038.6  0.5  752  346           
00 15.01.17 тихо ()   4000 м  {снег}  ясно 
-34.2 -35.9 84 -34  1039.3  0.5  752  349  -34.3    0.0  64  равномерный
сухой снег
100% 
03 15.01.17 тихо ()   20000 м    10/0 верхняя 
[Cs]
-35 -36.8 83 -35  1040.7  1.1  753  350  -35.5         
06 15.01.17 тихо ()   20000 м  в посл. час снег  10/0 средняя, верхняя 
[Ac trans|Cs]
-33 -34.8 84 -33  1040.7  0.3  753  347           
09 15.01.17 тихо ()   20000 м  {снег}  10/0 средняя, верхняя 
[Ac trans|Cs]
-32.7 -34.5 84 -33  1041.6  0.9  754  347           
12 15.01.17 тихо ()   4000 м  {снег}  10/0 верхняя 
[Cs]
-34.5 -36.2 84 -35  1043.1  1.2  755  350    -32.7  0.0     
15 15.01.17 тихо ()   4000 м    10/0 верхняя 
[Cs]
-36 -37.8 83 -36  1043.8  0.5  755  353           
18 15.01.17 тихо ()   4000 м    10/0 верхняя 
[Cs]
-36.5 -38.2 84 -37  1044.3  0.4  756  354           
21 15.01.17 тихо ()   4000 м    10/0 верхняя 
[Ci fib]
-37.5 -39.3 83 -38  1044.8  0.3  756  355           
00 16.01.17 тихо ()   4000 м    10/0 верхняя 
[Ci fib]
-38 -39.7 84 -38  1045.3  0.5  756  356  -39      64  равномерный
сухой снег
100% 
03 16.01.17 тихо ()   4000 м  дымка  9/0 верхняя 
[Ci fib]
-38.7 -40.2 86 -39  1046.4  0.9  757  357  -38.9         
06 16.01.17 тихо ()   4000 м  дымка  3/0 верхняя 
[Ci fib]
-35.5 -37.1 85 -36  1045.3  -0.6  757  352           
09 16.01.17 тихо ()   20000 м    3/0 верхняя 
[Ci fib]
-36.4 -38.2 84 -36  1045.6  0.3  757  354           
12 16.01.17 тихо ()   4000 м    ясно 
-37 -38.5 86 -37  1046.6  0.7  757  355    -35.3       
15 16.01.17 тихо ()   4000 м    ясно 
-38.6 -40.2 85 -39  1047.2  0.3  758  358           
18 16.01.17 тихо ()   4000 м    ясно 
-39.9 -41.6 84 -40  1047.4  758  360           
21 16.01.17 тихо ()   4000 м    ясно 
-40.2 -41.6 86 -40  1047.9  0.5  758  360           
00 17.01.17 тихо ()   4000 м  дымка  5/0 верхняя 
[Ci fib]
-40.1 -42.2 80 -40  1048.4  0.5  758  360  -40.6      64  равномерный
сухой снег
100% 
03 17.01.17 тихо ()   20000 м    3/0 верхняя 
[Ci fib]
-39.9 -42.2 79 -40  1048.9  0.5  759  360           
06 17.01.17 тихо ()   20000 м    8/0 верхняя 
[Ci fib]
-36.6 -38.8 80 -37  1047.8  -0.6  758  355           
09 17.01.17 тихо ()   20000 м    10/0 верхняя 
[Cs]
-35.7 -38.1 78 -36  1047.5  -0.1  758  353           
12 17.01.17 тихо ()   4000 м    10/0 верхняя 
[Cs]
-35.1 -36.8 84 -35  1045.9  -1.4  757  352    -35.1       
15 17.01.17 тихо ()   4000 м    10/0 верхняя 
[Cs]
-34.2 -35.9 84 -34  1043.2  -2.5  755  350           
Время (UTC), дата Ветер
(°,м/с) 
Видим.   Явления Облачность Т
(°С)
Тd
(°С)
f(%) Тe
(°С)
Pmin
(гПа)
dP
(гПа)
Po
(мм)
O2
(г/м3)
Тmin Tmax R s Состояние
почвы

Для получения пояснительной информации подведите курсор к названию столбца.

ПОГОДА в Байките - архив

Всё, что Вы хотите узнать о погоде в Байките - удобно и подробно!

Выберите нужную дату (начиная с 1 января 2015* года) и нажмите кнопку "Найти".
Будут отображены архивные сводки погоды по пункту Байкит, начиная с указанной даты.


Отображать данные в формате CSV (для использования в таблицах Excel)


Внимание! Наш архив погоды предназначен исключительно для личного некоммерческого использования в познавательных целях. Если Вам необходимы официальные справки о состоянии погоды (для производственных, юридических, коммерческих и т.п. целей), обращайтесь в органы Росгидромета.

*Примечание: данная дата относится к архиву по метеостанциям СССР (Россия, СНГ, Балтия).
Архив по метеостанциям Зарубежной Европы и Азии (кроме Китая) хранится 10 дней, по другим регионам земного шара (Китай, Африка, Америка, Австралия, Океания) - 1 день.

Байкит - район местоположения метеостанции


Название, широта, долгота, высота метеостанции:
Байкит 61.7°ш. 96.4°д. 262 м над ур. моря [Российская Федерация]

Дополнительная информация

В oтличие oт бoльшинства пoгoдных сайтoв мы публикуем пoдрoбную метеoинфoрмацию в детальнoм прoфессиoнальнoм фoрмате.

Характеристики температуры и влажнoсти вoздуха измеряются на высoте 2 м в тени вдали oт зданий и деревьев.
Скoрoсть ветра измеряется на высoте 10 м (на урoвне рoста челoвека скoрoсть ветра ниже в 1.5-2 раза). Если метеoстанция нахoдится в гoрoде или в лесу, тo скoрoсть ветра занижена на 2-4 м/с пo сравнению с oткрытым местoм. Скoрoсть ветра над акватoриями крупных рек и oзёр, а также на вершинах хoлмoв на 2-5 м/с выше, чем в oбычных услoвиях.
Атмoсфернoе давление в разных тoчках местнoсти мoжет значительнo oтличаться oт давления на метеoстанции, в зависимoсти oт услoвий рельефа (при пoдъёме на 10 м давление пoнижается примернo на 1 мм рт.ст.).